| time (UTC) | temp C | wind direction | speed KPH | gust KPH | rain 1hr cm | rain 24hr cm | rain mn cm | humidity % | barometer mb |
| 20260504110503 | 2 | 53 | 3.2 | 4.8 | 0.00 | 0.00 | 0.00 | 93 | 1015.1 |
| 20260504100419 | 1 | 47 | 3.2 | 6.4 | 0.00 | 0.00 | 0.00 | 93 | 1014.9 |
| 20260504081812 | 2 | 49 | 1.6 | 4.8 | 0.00 | 0.00 | 0.00 | 88 | 1015.2 |
| 20260504081309 | 2 | 97 | 0.0 | 3.2 | 0.00 | 0.00 | 0.00 | 88 | 1015.4 |
| 20260504080805 | 3 | 18 | 3.2 | 3.2 | 0.00 | 0.00 | 0.00 | 86 | 1015.2 |
| 20260504080302 | 3 | 40 | 0.0 | 3.2 | 0.00 | 0.00 | 0.00 | 86 | 1015.3 |
| 20260504070229 | 5 | 58 | 1.6 | 4.8 | 0.00 | 0.00 | 0.00 | 81 | 1015.2 |
| 20260504060150 | 5 | 44 | 0.0 | 3.2 | 0.00 | 0.00 | 0.00 | 76 | 1015.0 |
| 20260504050618 | 5 | 55 | 0.0 | 1.6 | 0.00 | 0.00 | 0.00 | 75 | 1014.9 |
| 20260504050115 | 6 | 104 | 0.0 | 0.0 | 0.00 | 0.00 | 0.00 | 74 | 1014.9 |
| 20260504045612 | 6 | 38 | 0.0 | 3.2 | 0.00 | 0.00 | 0.00 | 74 | 1015.0 |
| 20260504045107 | 6 | 39 | 0.0 | 3.2 | 0.00 | 0.00 | 0.00 | 73 | 1014.9 |
| 20260504044605 | 6 | 48 | 0.0 | 3.2 | 0.00 | 0.00 | 0.00 | 72 | 1014.7 |
| 20260504044102 | 6 | 75 | 0.0 | 3.2 | 0.00 | 0.00 | 0.00 | 71 | 1014.9 |
| 20260504043559 | 6 | 39 | 0.0 | 3.2 | 0.00 | 0.00 | 0.00 | 70 | 1014.9 |
| 20260504043055 | 6 | 44 | 0.0 | 1.6 | 0.00 | 0.00 | 0.00 | 71 | 1014.8 |
| 20260504042552 | 6 | 55 | 0.0 | 3.2 | 0.00 | 0.00 | 0.00 | 70 | 1014.7 |
| 20260504042049 | 6 | 63 | 0.0 | 3.2 | 0.00 | 0.00 | 0.00 | 69 | 1014.4 |
| 20260504041545 | 6 | 72 | 0.0 | 3.2 | 0.00 | 0.00 | 0.00 | 71 | 1014.4 |
| 20260504041042 | 6 | 343 | 0.0 | 1.6 | 0.00 | 0.00 | 0.00 | 71 | 1014.7 |
| 20260504040539 | 6 | 60 | 0.0 | 1.6 | 0.00 | 0.00 | 0.00 | 68 | 1014.3 |
| 20260504040035 | 7 | 89 | 0.0 | 3.2 | 0.00 | 0.00 | 0.00 | 68 | 1014.5 |
| 20260504035532 | 7 | 89 | 0.0 | 3.2 | 0.00 | 0.00 | 0.00 | 66 | 1014.4 |
| 20260504035029 | 7 | 119 | 0.0 | 3.2 | 0.00 | 0.00 | 0.00 | 66 | 1014.3 |
| 20260504034527 | 7 | 113 | 0.0 | 4.8 | 0.00 | 0.00 | 0.00 | 67 | 1014.2 |
| 20260504034023 | 6 | 343 | 0.0 | 3.2 | 0.00 | 0.00 | 0.00 | 67 | 1014.2 |
| 20260504033521 | 6 | 75 | 0.0 | 3.2 | 0.00 | 0.00 | 0.00 | 67 | 1014.4 |
| 20260504033019 | 6 | 19 | 0.0 | 3.2 | 0.00 | 0.00 | 0.00 | 68 | 1014.4 |
| 20260504032515 | 6 | 44 | 0.0 | 0.0 | 0.00 | 0.00 | 0.00 | 68 | 1014.3 |
| 20260504032012 | 6 | 23 | 0.0 | 3.2 | 0.00 | 0.00 | 0.00 | 67 | 1014.4 |
| 20260504031509 | 7 | 66 | 1.6 | 3.2 | 0.00 | 0.00 | 0.00 | 68 | 1014.7 |
| 20260504031005 | 7 | 157 | 0.0 | 1.6 | 0.00 | 0.00 | 0.00 | 66 | 1014.5 |
| 20260504030503 | 7 | 153 | 1.6 | 1.6 | 0.00 | 0.00 | 0.00 | 67 | 1014.4 |
| 20260504025958 | 6 | 31 | 0.0 | 3.2 | 0.00 | 0.00 | 0.00 | 67 | 1014.2 |
| 20260504025456 | 6 | 23 | 1.6 | 3.2 | 0.00 | 0.00 | 0.00 | 67 | 1014.2 |
| 20260504024952 | 6 | 15 | 0.0 | 1.6 | 0.00 | 0.00 | 0.00 | 70 | 1014.4 |
| 20260504024449 | 7 | 35 | 0.0 | 3.2 | 0.00 | 0.00 | 0.00 | 67 | 1014.3 |
| 20260504023946 | 7 | 58 | 1.6 | 3.2 | 0.00 | 0.00 | 0.00 | 66 | 1014.3 |
| 20260504023443 | 7 | 10 | 0.0 | 3.2 | 0.00 | 0.00 | 0.00 | 66 | 1014.5 |
| 20260504022938 | 7 | 44 | 0.0 | 1.6 | 0.00 | 0.00 | 0.00 | 68 | 1014.3 |
| 20260504022435 | 7 | 50 | 1.6 | 3.2 | 0.00 | 0.00 | 0.00 | 66 | 1014.3 |
| 20260504021932 | 7 | 344 | 1.6 | 3.2 | 0.00 | 0.00 | 0.00 | 67 | 1014.1 |
| 20260504021429 | 7 | 50 | 0.0 | 3.2 | 0.00 | 0.00 | 0.00 | 67 | 1014.4 |
| 20260504020926 | 7 | 48 | 0.0 | 3.2 | 0.00 | 0.00 | 0.00 | 67 | 1014.3 |
| 20260504020423 | 7 | 49 | 0.0 | 3.2 | 0.00 | 0.00 | 0.00 | 66 | 1014.3 |
| 20260504015920 | 7 | 22 | 0.0 | 3.2 | 0.00 | 0.00 | 0.00 | 64 | 1014.4 |
| 20260504015415 | 7 | 76 | 0.0 | 1.6 | 0.00 | 0.00 | 0.00 | 64 | 1014.3 |
| 20260504014912 | 7 | 50 | 0.0 | 1.6 | 0.00 | 0.00 | 0.00 | 65 | 1014.3 |
| 20260504014408 | 7 | 62 | 0.0 | 3.2 | 0.00 | 0.00 | 0.00 | 62 | 1014.3 |
| 20260504013905 | 7 | 66 | 0.0 | 1.6 | 0.00 | 0.00 | 0.00 | 62 | 1014.4 |
| 20260504013403 | 8 | 50 | 0.0 | 1.6 | 0.00 | 0.00 | 0.00 | 61 | 1014.1 |
| 20260504012859 | 8 | 75 | 0.0 | 1.6 | 0.00 | 0.00 | 0.00 | 60 | 1014.1 |
| 20260504012357 | 8 | 67 | 1.6 | 3.2 | 0.00 | 0.00 | 0.00 | 61 | 1014.0 |
| 20260504011854 | 8 | 0 | 0.0 | 1.6 | 0.00 | 0.00 | 0.00 | 58 | 1014.0 |
| 20260504011351 | 8 | 22 | 0.0 | 3.2 | 0.00 | 0.00 | 0.00 | 58 | 1013.9 |
| 20260504010847 | 8 | 48 | 0.0 | 1.6 | 0.00 | 0.00 | 0.00 | 55 | 1013.8 |
| 20260504010343 | 8 | 11 | 0.0 | 1.6 | 0.00 | 0.00 | 0.00 | 57 | 1013.7 |
| 20260504005839 | 9 | 50 | 0.0 | 1.6 | 0.00 | 0.00 | 0.00 | 58 | 1013.8 |
| 20260504005336 | 9 | 49 | 0.0 | 3.2 | 0.00 | 0.00 | 0.00 | 57 | 1013.7 |
| 20260504004834 | 9 | 50 | 0.0 | 1.6 | 0.00 | 0.00 | 0.00 | 57 | 1013.8 |
| 20260504004331 | 10 | 78 | 0.0 | 3.2 | 0.00 | 0.00 | 0.00 | 56 | 1013.9 |
| 20260504003827 | 10 | 42 | 1.6 | 3.2 | 0.00 | 0.00 | 0.00 | 55 | 1013.5 |
| 20260504003325 | 10 | 48 | 0.0 | 3.2 | 0.00 | 0.00 | 0.00 | 53 | 1013.9 |
| 20260504002821 | 10 | 334 | 0.0 | 3.2 | 0.00 | 0.00 | 0.00 | 50 | 1013.8 |
| 20260504002318 | 10 | 37 | 0.0 | 1.6 | 0.00 | 0.00 | 0.00 | 52 | 1013.6 |
| 20260504001816 | 11 | 52 | 0.0 | 3.2 | 0.00 | 0.00 | 0.00 | 51 | 1013.3 |
| 20260504001313 | 11 | 75 | 0.0 | 1.6 | 0.00 | 0.00 | 0.00 | 47 | 1013.4 |
| 20260504000810 | 11 | 138 | 0.0 | 3.2 | 0.00 | 0.00 | 0.00 | 45 | 1013.5 |
| 20260504000307 | 12 | 95 | 3.2 | 4.8 | 0.00 | 0.00 | 0.00 | 43 | 1013.4 |
| 20260503235804 | 12 | 54 | 0.0 | 3.2 | 0.00 | 0.00 | 0.00 | 43 | 1013.4 |
| 20260503235302 | 12 | 57 | 3.2 | 3.2 | 0.00 | 0.00 | 0.00 | 43 | 1013.3 |
| 20260503234759 | 12 | 76 | 0.0 | 3.2 | 0.00 | 0.00 | 0.00 | 43 | 1013.2 |
| 20260503234257 | 12 | 62 | 1.6 | 4.8 | 0.00 | 0.00 | 0.00 | 40 | 1013.3 |
| 20260503233754 | 12 | 79 | 3.2 | 4.8 | 0.00 | 0.00 | 0.00 | 40 | 1013.1 |
| 20260503233249 | 13 | 68 | 1.6 | 4.8 | 0.00 | 0.00 | 0.00 | 38 | 1013.2 |
| 20260503232747 | 13 | 110 | 0.0 | 8.0 | 0.00 | 0.00 | 0.00 | 40 | 1013.1 |
| 20260503232244 | 13 | 79 | 3.2 | 6.4 | 0.00 | 0.00 | 0.00 | 40 | 1013.3 |
| 20260503231742 | 13 | 126 | 3.2 | 6.4 | 0.00 | 0.00 | 0.00 | 39 | 1013.0 |
| 20260503231239 | 13 | 141 | 1.6 | 6.4 | 0.00 | 0.00 | 0.00 | 39 | 1013.1 |
| 20260503230734 | 13 | 192 | 3.2 | 8.0 | 0.00 | 0.00 | 0.00 | 39 | 1013.1 |
| 20260503230232 | 13 | 71 | 4.8 | 4.8 | 0.00 | 0.00 | 0.00 | 39 | 1013.1 |
| 20260503225724 | 13 | 119 | 1.6 | 3.2 | 0.00 | 0.00 | 0.00 | 39 | 1013.2 |
| 20260503225224 | 13 | 68 | 3.2 | 3.2 | 0.00 | 0.00 | 0.00 | 39 | 1013.2 |
| 20260503224721 | 13 | 82 | 3.2 | 9.7 | 0.00 | 0.00 | 0.00 | 39 | 1013.3 |
| 20260503224219 | 13 | 64 | 3.2 | 8.0 | 0.00 | 0.00 | 0.00 | 39 | 1013.1 |
| 20260503223716 | 13 | 87 | 3.2 | 4.8 | 0.00 | 0.00 | 0.00 | 39 | 1013.2 |
| 20260503223213 | 13 | 61 | 0.0 | 4.8 | 0.00 | 0.00 | 0.00 | 42 | 1013.2 |
| 20260503222710 | 13 | 82 | 3.2 | 4.8 | 0.00 | 0.00 | 0.00 | 42 | 1013.1 |
| 20260503222208 | 13 | 37 | 0.0 | 4.8 | 0.00 | 0.00 | 0.00 | 43 | 1013.1 |
| 20260503221706 | 13 | 19 | 0.0 | 4.8 | 0.00 | 0.00 | 0.00 | 41 | 1013.2 |
| 20260503221203 | 13 | 64 | 3.2 | 4.8 | 0.00 | 0.00 | 0.00 | 38 | 1013.0 |
| 20260503220659 | 13 | 60 | 1.6 | 4.8 | 0.00 | 0.00 | 0.00 | 39 | 1013.1 |
| 20260503220156 | 13 | 118 | 3.2 | 8.0 | 0.00 | 0.00 | 0.00 | 38 | 1013.3 |
| 20260503215653 | 13 | 67 | 6.4 | 8.0 | 0.00 | 0.00 | 0.00 | 39 | 1013.0 |
| 20260503215149 | 13 | 128 | 1.6 | 9.7 | 0.00 | 0.00 | 0.00 | 39 | 1013.1 |
| 20260503214648 | 13 | 57 | 4.8 | 11.3 | 0.00 | 0.00 | 0.00 | 37 | 1013.2 |
| 20260503214143 | 13 | 92 | 3.2 | 9.7 | 0.00 | 0.00 | 0.00 | 39 | 1013.2 |
| 20260503213638 | 13 | 320 | 3.2 | 14.5 | 0.00 | 0.00 | 0.00 | 37 | 1013.0 |
| 20260503213134 | 13 | 20 | 6.4 | 19.3 | 0.00 | 0.00 | 0.00 | 38 | 1013.2 |
| 20260503212631 | 14 | 59 | 6.4 | 9.7 | 0.00 | 0.00 | 0.00 | 38 | 1013.1 |
| 20260503212129 | 14 | 55 | 8.0 | 11.3 | 0.00 | 0.00 | 0.00 | 37 | 1013.1 |
| 20260503211626 | 14 | 113 | 3.2 | 9.7 | 0.00 | 0.00 | 0.00 | 37 | 1013.1 |
| 20260503211121 | 14 | 163 | 4.8 | 14.5 | 0.00 | 0.00 | 0.00 | 35 | 1013.1 |
| 20260503210618 | 14 | 31 | 4.8 | 22.5 | 0.00 | 0.00 | 0.00 | 35 | 1013.1 |
| 20260503210115 | 14 | 1 | 1.6 | 8.0 | 0.00 | 0.00 | 0.00 | 37 | 1013.0 |
| 20260503205611 | 14 | 100 | 8.0 | 24.1 | 0.00 | 0.00 | 0.00 | 33 | 1012.9 |
| 20260503205107 | 14 | 49 | 4.8 | 14.5 | 0.00 | 0.00 | 0.00 | 35 | 1012.9 |
| 20260503204604 | 14 | 39 | 8.0 | 17.7 | 0.00 | 0.00 | 0.00 | 34 | 1012.8 |
| 20260503204101 | 13 | 168 | 6.4 | 14.5 | 0.00 | 0.00 | 0.00 | 35 | 1012.8 |
| 20260503203558 | 14 | 185 | 4.8 | 11.3 | 0.00 | 0.00 | 0.00 | 34 | 1012.9 |
| 20260503203055 | 15 | 131 | 4.8 | 19.3 | 0.00 | 0.00 | 0.00 | 33 | 1012.9 |
| 20260503202553 | 14 | 147 | 4.8 | 8.0 | 0.00 | 0.00 | 0.00 | 36 | 1013.0 |
| 20260503202051 | 14 | 153 | 8.0 | 12.9 | 0.00 | 0.00 | 0.00 | 34 | 1012.8 |
| 20260503201549 | 14 | 54 | 6.4 | 16.1 | 0.00 | 0.00 | 0.00 | 34 | 1012.9 |
| 20260503201046 | 14 | 173 | 9.7 | 17.7 | 0.00 | 0.00 | 0.00 | 32 | 1012.8 |
| 20260503200542 | 15 | 127 | 4.8 | 17.7 | 0.00 | 0.00 | 0.00 | 31 | 1013.1 |
| 20260503200038 | 15 | 93 | 1.6 | 12.9 | 0.00 | 0.00 | 0.00 | 34 | 1013.1 |
| 20260503195536 | 15 | 60 | 8.0 | 19.3 | 0.00 | 0.00 | 0.00 | 32 | 1013.2 |
| 20260503195032 | 15 | 40 | 4.8 | 17.7 | 0.00 | 0.00 | 0.00 | 33 | 1013.3 |
| 20260503194530 | 15 | 296 | 3.2 | 6.4 | 0.00 | 0.00 | 0.00 | 35 | 1013.3 |
| 20260503194029 | 15 | 351 | 1.6 | 14.5 | 0.00 | 0.00 | 0.00 | 32 | 1013.4 |
| 20260503193526 | 15 | 64 | 6.4 | 11.3 | 0.00 | 0.00 | 0.00 | 36 | 1013.4 |
| 20260503193017 | 15 | 125 | 4.8 | 16.1 | 0.00 | 0.00 | 0.00 | 32 | 1013.6 |
| 20260503192513 | 15 | 201 | 4.8 | 9.7 | 0.00 | 0.00 | 0.00 | 32 | 1013.5 |
| 20260503192009 | 15 | 59 | 6.4 | 12.9 | 0.00 | 0.00 | 0.00 | 34 | 1013.6 |
| 20260503191506 | 13 | 112 | 3.2 | 11.3 | 0.00 | 0.00 | 0.00 | 32 | 1013.8 |
| 20260503191003 | 13 | 123 | 3.2 | 14.5 | 0.00 | 0.00 | 0.00 | 33 | 1013.7 |
| 20260503190459 | 14 | 5 | 8.0 | 20.9 | 0.00 | 0.00 | 0.00 | 33 | 1014.0 |
| 20260503185956 | 13 | 52 | 8.0 | 27.4 | 0.00 | 0.00 | 0.00 | 32 | 1013.9 |
| 20260503185452 | 13 | 41 | 8.0 | 19.3 | 0.00 | 0.00 | 0.00 | 32 | 1014.2 |
| 20260503184952 | 14 | 79 | 6.4 | 16.1 | 0.00 | 0.00 | 0.00 | 33 | 1014.4 |
| 20260503184449 | 14 | 48 | 4.8 | 11.3 | 0.00 | 0.00 | 0.00 | 35 | 1014.2 |
| 20260503183945 | 13 | 340 | 6.4 | 14.5 | 0.00 | 0.00 | 0.00 | 38 | 1014.3 |
| 20260503183442 | 13 | 141 | 4.8 | 14.5 | 0.00 | 0.00 | 0.00 | 34 | 1014.2 |
| 20260503182939 | 13 | 140 | 3.2 | 11.3 | 0.00 | 0.00 | 0.00 | 38 | 1014.3 |
| 20260503182438 | 13 | 47 | 14.5 | 19.3 | 0.00 | 0.00 | 0.00 | 35 | 1014.4 |
| 20260503181935 | 13 | 45 | 11.3 | 14.5 | 0.00 | 0.00 | 0.00 | 39 | 1014.5 |
| 20260503181432 | 13 | 31 | 4.8 | 6.4 | 0.00 | 0.00 | 0.00 | 38 | 1014.4 |
| 20260503180928 | 13 | 61 | 8.0 | 11.3 | 0.00 | 0.00 | 0.00 | 38 | 1014.7 |
| 20260503180427 | 13 | 114 | 4.8 | 16.1 | 0.00 | 0.00 | 0.00 | 36 | 1014.7 |
| 20260503175922 | 13 | 56 | 16.1 | 17.7 | 0.00 | 0.00 | 0.00 | 37 | 1014.9 |
| 20260503175421 | 12 | 65 | 6.4 | 19.3 | 0.00 | 0.00 | 0.00 | 35 | 1015.1 |
| 20260503174916 | 12 | 17 | 8.0 | 32.2 | 0.00 | 0.00 | 0.00 | 35 | 1015.2 |
| 20260503174414 | 12 | 59 | 6.4 | 16.1 | 0.00 | 0.00 | 0.00 | 37 | 1015.0 |
| 20260503173909 | 12 | 78 | 4.8 | 30.6 | 0.00 | 0.00 | 0.00 | 37 | 1015.2 |
| 20260503173405 | 12 | 167 | 4.8 | 9.7 | 0.00 | 0.00 | 0.00 | 39 | 1015.3 |
| 20260503172902 | 12 | 39 | 6.4 | 24.1 | 0.00 | 0.00 | 0.00 | 37 | 1015.2 |
| 20260503172400 | 11 | 72 | 12.9 | 27.4 | 0.00 | 0.00 | 0.00 | 37 | 1015.2 |
| 20260503171855 | 11 | 37 | 0.0 | 11.3 | 0.00 | 0.00 | 0.00 | 39 | 1015.2 |
| 20260503171353 | 12 | 37 | 6.4 | 14.5 | 0.00 | 0.00 | 0.00 | 40 | 1015.3 |
| 20260503170850 | 11 | 172 | 8.0 | 32.2 | 0.00 | 0.00 | 0.00 | 37 | 1015.3 |
| 20260503170346 | 11 | 63 | 8.0 | 16.1 | 0.00 | 0.00 | 0.00 | 38 | 1015.2 |
| 20260503150739 | 8 | 51 | 6.4 | 19.3 | 0.00 | 0.00 | 0.00 | 44 | 1016.1 |
| 20260503150234 | 8 | 111 | 4.8 | 14.5 | 0.00 | 0.00 | 0.00 | 44 | 1016.2 |
| 20260503140159 | 7 | 102 | 1.6 | 9.7 | 0.00 | 0.00 | 0.00 | 54 | 1016.3 |
| 20260503131128 | 6 | 59 | 11.3 | 19.3 | 0.00 | 0.00 | 0.00 | 62 | 1016.7 |
| 20260503130626 | 6 | 61 | 8.0 | 16.1 | 0.00 | 0.00 | 0.00 | 66 | 1016.4 |
| 20260503130124 | 6 | 31 | 3.2 | 17.7 | 0.00 | 0.00 | 0.00 | 65 | 1016.6 |